Weather in Cherkizovo

Russia / Moscow Oblast     55°57′40″N   37°48′00″E
temp.,
°C
wind,
m/s
gust,
m/s
humid.,
%
clouds,
%
prec.,
mm/h
press.,
hPa
HPBL,
m
23 october, sat
sat2300:00+6wsw6136984 0.0 1002941
03:00+5sw61373100 0.0 1002863
06:00+6sw61272100 0.0 10021058
09:00+5sw61179100 0.0 10031348
12:00+7sw6116694 0.1 10031365
15:00+8wsw6116330 0.2 10041579
18:00+6wsw410705 0.1 1006530
21:00+4wsw411805 0.2 1007571
24 october, sun
sun2400:00+3wsw499498 0.0 1009573
03:00+4sw3894100 0.1 1009646
06:00+3w4883100 0.2 1009766
09:00+3w51093100 0.3 1011737
12:00+2nw51195100 0.3 1013659
15:00+2nw6118683 0.8 10151019
18:00+2nnw6117115 0.1 10191124
21:000nnw5118223 0.1 1022773
25 october, mon
mon2500:00−1nw510845 0.0 1024506
03:00−1nw49886 0.0 1026414
06:00−2nw37907 0.0 1028291
09:00−1wnw2480100 0.0 1029289
12:00+2wsw3555100 0.0 1029702
15:00+3wsw4756100 0.0 1027743
18:00+2sw5116696 0.0 1026575
21:00+1sw5137191 0.0 1025529
26 october, tue
tue2600:00+1wsw514765 0.0 1024508
03:00+1wsw513844 0.0 1024447
06:000wsw51385100 0.0 1023428
09:00+2wsw51479100 0.0 1022475
12:00+5wsw5136592 0.0 1022553
15:00+6wsw5136277 0.0 1020676
18:00+4sw5136787 0.0 1020545
21:00+4wsw5146998 0.0 1020530
27 october, wed
wed2700:00+3sw5137489 0.0 1019470
03:00+2sw41277100 0.0 1018425
06:00+2sw51374100 0.0 1016449
09:00+3sw51370100 0.0 1015536
12:00+5sw61365100 0.0 1014677
15:00+4wsw51183100 0.5 1013722
18:00+4wsw51191100 1.1 1013637
21:00+5w51289100 1.2 1014749